◎2004 RG113の軌道と予報位置です



  上尾の門田健一氏による11月24日の観測が報告されました.氏の CCD全光度は,

17.5等でした.



    C/2004 RG113 (LINEAR)                                                 

Epoch 2005 Mar. 11.0 TT = JDT 2453440.5  

T 2005 Mar. 3.71866 TT                                  Nakano

q   1.9423685            (2000.0)            P               Q

z  +0.0014223      Peri.  125.30556     -0.68688991     -0.72458586

 +/-0.0000381      Node     8.77310     +0.48745841     -0.51668395

e   0.9972373      Incl.   21.61829     +0.53904225     -0.45608444

From 52 observations 2004 Sept. 6-2004 Nov. 24, mean residual 0".57.

   (1/a)org.= +0.001747, (1/a)fut.= +0.002977 (+/-0.000038), Q= 5.

Residuals in seconds of arc 

2004/                     041025 704  0.2+  0.8+    041122 704  0.1-  0.6-  

040906 704  0.5+  0.7-    041103 704  0.6-  0.5+    041122 704  0.0   0.4-  

040906 704  0.8-  0.3+    041103 704  1.0-  0.4-    041122 704  0.2+  0.1+  

040906 704  0.6-  0.6-    041103 704  1.0+  1.1+    041122 704  0.0   0.3-  

040906 704  0.9-  1.0+    041103 704  0.9+  0.1-    041122 704  0.3+  0.1-  

040906 704  0.2-  0.4+    041103 704  0.8+  0.0     041123 G72  0.0   0.8+  

040911 704  0.1-  0.3+    041110 704  0.5-  0.7-    041123 G72  0.3+  1.3-  

040911 704  1.3+  0.2-    041110 704  0.3-  0.3-    041123 G72  0.1-  0.9+  

040911 704  0.7+  0.4-    041110 704  0.2-  0.3+    041123 G72 (1.8+  2.5+) 

040911 704  0.3-  0.5-    041110 704  0.8-  0.0     041123 G72  0.9+  0.6+  

040911 704  0.4+  0.3+    041110 704  0.8-  0.7+    041123 G72  0.1-  1.2+  

041023 704  0.0   0.4-    041120 704  0.3+  0.1-    041123 G72  0.5+  1.1+  

041023 704  0.1+  0.2-    041120 704  0.5-  0.0     041123 G72  1.1+  1.3+  

041023 704  0.5-  0.6-    041120 704  0.1-  0.5-    041123 G72  0.5+  0.4+  

041023 704  0.1-  0.3-    041120 704  0.0   0.2-    041124 349  0.2-  0.5-  

041023 704  0.1+  0.0     041120 704  0.4-  0.3-    041124 349  0.4-  0.5-  

041025 704  0.1+  0.5+    041122 704  0.0   0.1-    041124 349  0.4-  0.4-  

041025 704  0.5+  0.3-    041122 704  0.1-  0.3-                            

041025 704 (2.0-  2.1-)   041122 704  0.9-  1.3-                            

 

Date/        TT  R.A.(2000) Decl.     Delta   r     Daily motion  Mag.  Moon Age

              h    h  m       。  ,                      ,  / PA 。  m1      。

2004 Nov. 25 18  07 38.38  +54 41.1   1.532  2.278    14.7 /  39  17.5   60  .99

          26 18  07 39.46  +54 52.6   1.521  2.272    14.5 /  38  17.5   50 1.00

          27 18  07 40.50  +55 04.0   1.510  2.266    14.3 /  37  17.4   41  .99

          28 18  07 41.52  +55 15.3   1.499  2.260    14.1 /  37  17.4   34  .97

          29 18  07 42.51  +55 26.6   1.488  2.254    13.9 /  36  17.4   30  .92

          30 18  07 43.47  +55 37.9   1.477  2.248    13.7 /  35  17.4   29  .87

     Dec.  1 18  07 44.40  +55 49.1   1.466  2.242    13.5 /  34  17.3   32  .80

           2 18  07 45.29  +56 00.3   1.456  2.236    13.2 /  33  17.3   39  .71

           3 18  07 46.16  +56 11.4   1.446  2.230    13.0 /  32  17.3   47  .62

           4 18  07 46.99  +56 22.4   1.435  2.224    12.8 /  31  17.3   57  .53

           5 18  07 47.78  +56 33.3   1.426  2.218    12.5 /  30  17.2   67  .43

           6 18  07 48.54  +56 44.1   1.416  2.213    12.3 /  29  17.2   78  .33

           7 18  07 49.27  +56 54.9   1.406  2.207    12.0 /  28  17.2   89  .23

           8 18  07 49.96  +57 05.5   1.397  2.201    11.8 /  27  17.2  101  .15

           9 18  07 50.62  +57 16.0   1.388  2.196    11.5 /  26  17.1  113  .08

          10 18  07 51.23  +57 26.3   1.378  2.190    11.2 /  25  17.1  125  .03

          11 18  07 51.81  +57 36.5   1.370  2.185    11.0 /  23  17.1  136  .00

          12 18  07 52.36  +57 46.6   1.361  2.179    10.7 /  22  17.1  144  .01

          13 18  07 52.86  +57 56.5   1.352  2.174    10.4 /  21  17.0  149  .04

          14 18  07 53.32  +58 06.2   1.344  2.168    10.1 /  19  17.0  147  .11

          15 18  07 53.75  +58 15.7   1.336  2.163     9.8 /  18  17.0  139  .19

          16 18  07 54.14  +58 25.0   1.328  2.158     9.5 /  17  17.0  130  .29

          17 18  07 54.49  +58 34.1   1.320  2.153     9.2 /  15  16.9  119  .40

          18 18  07 54.80  +58 43.0   1.312  2.147     8.9 /  14  16.9  108  .51

          19 18  07 55.07  +58 51.7   1.305  2.142     8.6 /  12  16.9   97  .61

          20 18  07 55.30  +59 00.1   1.297  2.137     8.3 /  10  16.9   86  .71

          21 18  07 55.50  +59 08.2   1.290  2.132     8.0 /   9  16.8   76  .79

          22 18  07 55.65  +59 16.1   1.283  2.127     7.6 /   7  16.8   65  .87

          23 18  07 55.77  +59 23.7   1.276  2.123     7.3 /   5  16.8   56  .93

          24 18  07 55.85  +59 30.9   1.270  2.118     7.0 /   3  16.8   47  .97

          25 18  07 55.89  +59 37.9   1.263  2.113     6.7 /   0  16.8   40  .99

          26 18  07 55.90  +59 44.6   1.257  2.108     6.3 / 358  16.7   35 1.00

          27 18  07 55.87  +59 50.9   1.251  2.104     6.0 / 355  16.7   33  .99

          28 18  07 55.81  +59 56.9   1.245  2.099     5.7 / 352  16.7   35  .96

          29 18  07 55.71  +60 02.5   1.239  2.094     5.4 / 349  16.7   40  .91

          30 18  07 55.58  +60 07.8   1.234  2.090     5.0 / 346  16.7   47  .85

          31 18  07 55.41  +60 12.7   1.228  2.085     4.7 / 342  16.6   56  .78

2005 Jan.  1 18  07 55.21  +60 17.2   1.223  2.081     4.4 / 338  16.6   65  .69

NAKANO

         **** Don't distribute anyone except personal use only ****

                (C) Copyright 2004 OAA/ComputingSection

write mail from CFAD0::NAKANO on 2004-11-26 06:14:10(JST).

 



戻ります。